When you browse on this site, cookies collect data to enhance your experience and personalize the content and advertising you see.
Visit our Privacy Policy to learn more. By continuing to use the site, you agree to this use of cookies and data.
  • In Slovakia
  • List of Countries
  • For 7 days
  • Water Temperature
  • Weather Map
  • Weather Widgets
  • user-avatar
    Login

    Hourly Weather Albena

    Today, 15 October, Tuesday

    Time Temperature Precipitation Wind Pressure Humidity
    00:00 +14°C° 0 mm 1 mps 750 mmHg 93%
    01:00 +14°C° 0 mm 1 mps 750 mmHg 94%
    02:00 +12°C° 0 mm 0 mps 750 mmHg 94%
    03:00 +13°C° 0 mm 1 mps 749 mmHg 94%
    04:00 +13°C° 0 mm 1 mps 749 mmHg 94%
    05:00 +13°C° 0 mm 1 mps 749 mmHg 94%
    06:00 +14°C° 0 mm 1 mps 749 mmHg 93%
    07:00 +14°C° 0 mm 1 mps 749 mmHg 91%
    08:00 +15°C° 0 mm 1 mps 750 mmHg 89%
    09:00 +17°C° 0 mm 2 mps 750 mmHg 81%
    10:00 +18°C° 0 mm 2 mps 750 mmHg 74%
    11:00 +20°C° 0 mm 2 mps 750 mmHg 66%
    12:00 +20°C° 0 mm 2 mps 749 mmHg 64%
    13:00 +20°C° 0 mm 3 mps 749 mmHg 63%
    14:00 +21°C° 0 mm 3 mps 749 mmHg 61%
    15:00 +19°C° 0 mm 3 mps 748 mmHg 68%
    16:00 +18°C° 0 mm 2 mps 748 mmHg 74%
    17:00 +17°C° 0 mm 2 mps 748 mmHg 80%
    18:00 +16°C° 0 mm 2 mps 748 mmHg 85%
    19:00 +15°C° 0 mm 2 mps 748 mmHg 89%
    20:00 +14°C° 0 mm 2 mps 748 mmHg 93%
    21:00 +14°C° 0 mm 2 mps 748 mmHg 93%
    22:00 +14°C° 0 mm 1 mps 748 mmHg 94%
    23:00 +14°C° 0 mm 1 mps 748 mmHg 94%

    Tomorrow, 16 October, Wednesday

    Time Temperature Precipitation Wind Pressure Humidity
    00:00 +14°C° 0 mm 1 mps 748 mmHg 94%
    01:00 +13°C° 0 mm 1 mps 748 mmHg 94%
    02:00 +12°C° 0 mm 0 mps 748 mmHg 94%
    03:00 +13°C° 0 mm 1 mps 748 mmHg 94%
    04:00 +13°C° 0 mm 1 mps 748 mmHg 94%
    05:00 +13°C° 0 mm 1 mps 747 mmHg 94%
    06:00 +14°C° 0 mm 1 mps 748 mmHg 92%
    07:00 +14°C° 0 mm 1 mps 748 mmHg 90%
    08:00 +15°C° 0 mm 1 mps 748 mmHg 88%
    09:00 +17°C° 0 mm 2 mps 748 mmHg 77%
    10:00 +19°C° 0 mm 2 mps 748 mmHg 67%
    11:00 +21°C° 0 mm 2 mps 748 mmHg 57%
    12:00 +21°C° 0 mm 2 mps 748 mmHg 54%
    13:00 +23°C° 0 mm 2 mps 748 mmHg 50%
    14:00 +24°C° 0 mm 2 mps 748 mmHg 47%
    15:00 +21°C° 0 mm 2 mps 747 mmHg 54%
    16:00 +20°C° 0 mm 2 mps 747 mmHg 61%
    17:00 +18°C° 0 mm 2 mps 747 mmHg 68%
    18:00 +17°C° 0 mm 2 mps 747 mmHg 75%
    19:00 +16°C° 0 mm 2 mps 747 mmHg 81%
    20:00 +15°C° 0 mm 2 mps 747 mmHg 88%
    21:00 +15°C° 0 mm 2 mps 747 mmHg 89%
    22:00 +15°C° 0 mm 1 mps 748 mmHg 89%
    23:00 +14°C° 0 mm 1 mps 748 mmHg 90%

    Day after tomorrow, 17 October, Thursday

    Time Temperature Precipitation Wind Pressure Humidity
    00:00 +14°C° 0 mm 1 mps 748 mmHg 89%
    01:00 +14°C° 0 mm 1 mps 748 mmHg 89%
    02:00 +14°C° 0 mm 1 mps 748 mmHg 88%
    03:00 +14°C° 0 mm 1 mps 748 mmHg 87%
    04:00 +13°C° 0 mm 1 mps 748 mmHg 85%
    05:00 +13°C° 0 mm 1 mps 748 mmHg 83%
    06:00 +14°C° 0 mm 1 mps 748 mmHg 79%
    07:00 +15°C° 0 mm 1 mps 748 mmHg 76%
    08:00 +16°C° 0 mm 1 mps 748 mmHg 72%
    09:00 +19°C° 0 mm 1 mps 748 mmHg 64%
    10:00 +20°C° 0 mm 1 mps 748 mmHg 56%
    11:00 +22°C° 0 mm 1 mps 749 mmHg 48%
    12:00 +23°C° 0 mm 2 mps 748 mmHg 46%
    13:00 +24°C° 0 mm 2 mps 748 mmHg 44%
    14:00 +24°C° 0 mm 2 mps 748 mmHg 43%
    15:00 +23°C° 0 mm 2 mps 748 mmHg 51%
    16:00 +20°C° 0 mm 2 mps 748 mmHg 59%
    17:00 +19°C° 0 mm 2 mps 748 mmHg 68%
    18:00 +18°C° 0.1 mm 2 mps 748 mmHg 72%
    19:00 +18°C° 0.1 mm 1 mps 748 mmHg 76%
    20:00 +16°C° 0.1 mm 1 mps 748 mmHg 80%
    21:00 +16°C° 0 mm 1 mps 748 mmHg 80%
    22:00 +16°C° 0 mm 1 mps 748 mmHg 80%
    23:00 +14°C° 0 mm 0 mps 748 mmHg 80%

    18 October, Friday

    Time Temperature Precipitation Wind Pressure Humidity
    00:00 +15°C° 0 mm 1 mps 748 mmHg 78%
    01:00 +15°C° 0 mm 1 mps 748 mmHg 77%
    02:00 +15°C° 0 mm 1 mps 748 mmHg 76%
    03:00 +15°C° 0 mm 1 mps 748 mmHg 74%
    04:00 +15°C° 0 mm 1 mps 748 mmHg 72%
    05:00 +14°C° 0 mm 1 mps 748 mmHg 70%
    06:00 +15°C° 0 mm 1 mps 748 mmHg 66%
    07:00 +16°C° 0 mm 1 mps 748 mmHg 62%
    08:00 +18°C° 0 mm 1 mps 748 mmHg 58%
    09:00 +20°C° 0 mm 1 mps 749 mmHg 51%
    10:00 +22°C° 0 mm 1 mps 749 mmHg 45%
    11:00 +21°C° 0 mm 0 mps 749 mmHg 39%
    12:00 +24°C° 0 mm 1 mps 749 mmHg 37%
    13:00 +24°C° 0 mm 1 mps 748 mmHg 36%
    14:00 +25°C° 0 mm 1 mps 748 mmHg 35%
    15:00 +23°C° 0 mm 2 mps 748 mmHg 42%
    16:00 +21°C° 0 mm 2 mps 748 mmHg 49%
    17:00 +19°C° 0 mm 2 mps 748 mmHg 56%
    18:00 +19°C° 0 mm 1 mps 748 mmHg 60%
    19:00 +18°C° 0 mm 1 mps 748 mmHg 65%
    20:00 +16°C° 0 mm 1 mps 748 mmHg 69%
    21:00 +16°C° 0 mm 1 mps 748 mmHg 68%
    22:00 +16°C° 0 mm 1 mps 748 mmHg 67%
    23:00 +16°C° 0 mm 1 mps 748 mmHg 66%

    19 October, Saturday

    Time Temperature Precipitation Wind Pressure Humidity
    00:00 +16°C° 0 mm 1 mps 748 mmHg 66%
    01:00 +15°C° 0 mm 1 mps 748 mmHg 66%
    02:00 +15°C° 0 mm 1 mps 748 mmHg 66%
    03:00 +15°C° 0 mm 1 mps 748 mmHg 67%
    04:00 +15°C° 0 mm 1 mps 748 mmHg 68%
    05:00 +14°C° 0 mm 1 mps 748 mmHg 69%
    06:00 +15°C° 0 mm 1 mps 748 mmHg 68%
    07:00 +16°C° 0 mm 1 mps 748 mmHg 67%
    08:00 +16°C° 0 mm 1 mps 748 mmHg 65%
    09:00 +19°C° 0 mm 1 mps 748 mmHg 59%
    10:00 +21°C° 0 mm 1 mps 749 mmHg 52%
    11:00 +22°C° 0 mm 1 mps 749 mmHg 46%
    12:00 +23°C° 0 mm 2 mps 748 mmHg 44%
    13:00 +24°C° 0 mm 2 mps 748 mmHg 42%
    14:00 +24°C° 0 mm 2 mps 748 mmHg 40%
    15:00 +23°C° 0 mm 2 mps 748 mmHg 48%
    16:00 +21°C° 0 mm 2 mps 748 mmHg 56%
    17:00 +19°C° 0 mm 3 mps 748 mmHg 64%
    18:00 +18°C° 0 mm 2 mps 748 mmHg 71%
    19:00 +17°C° 0 mm 2 mps 748 mmHg 79%
    20:00 +16°C° 0 mm 2 mps 748 mmHg 86%
    21:00 +15°C° 0 mm 2 mps 748 mmHg 87%
    22:00 +15°C° 0 mm 1 mps 749 mmHg 88%
    23:00 +15°C° 0 mm 1 mps 749 mmHg 90%

    20 October, Sunday

    Time Temperature Precipitation Wind Pressure Humidity
    00:00 +14°C° 0 mm 1 mps 749 mmHg 90%
    01:00 +14°C° 0 mm 1 mps 749 mmHg 90%
    02:00 +14°C° 0 mm 1 mps 748 mmHg 90%
    03:00 +14°C° 0 mm 1 mps 749 mmHg 89%
    04:00 +13°C° 0 mm 1 mps 749 mmHg 89%
    05:00 +13°C° 0 mm 1 mps 749 mmHg 88%
    06:00 +14°C° 0 mm 1 mps 749 mmHg 85%
    07:00 +15°C° 0 mm 1 mps 749 mmHg 83%
    08:00 +15°C° 0 mm 1 mps 749 mmHg 80%
    09:00 +18°C° 0 mm 1 mps 750 mmHg 73%
    10:00 +20°C° 0 mm 1 mps 750 mmHg 66%
    11:00 +20°C° 0 mm 2 mps 750 mmHg 59%
    12:00 +21°C° 0 mm 2 mps 750 mmHg 57%
    13:00 +21°C° 0 mm 2 mps 750 mmHg 56%
    14:00 +23°C° 0 mm 2 mps 749 mmHg 54%
    15:00 +21°C° 0 mm 2 mps 749 mmHg 62%
    16:00 +19°C° 0 mm 2 mps 749 mmHg 70%
    17:00 +18°C° 0 mm 2 mps 749 mmHg 78%
    18:00 +17°C° 0 mm 2 mps 749 mmHg 83%
    19:00 +16°C° 0 mm 1 mps 750 mmHg 87%
    20:00 +15°C° 0 mm 1 mps 750 mmHg 92%
    21:00 +15°C° 0 mm 1 mps 750 mmHg 92%
    22:00 +15°C° 0 mm 1 mps 750 mmHg 92%
    23:00 +15°C° 0 mm 1 mps 750 mmHg 91%
    Show more